Location: Chatou
(48.8898°N, 2.1586°E)
Time: 21:53:55
(UTC+00:00)

Tiangong - Visible Passes

Search period start: 29 May 2023 00:00
Search period end: 08 June 2023 00:00
Orbit: 386 x 392 km, 41.5° (Epoch: 29 May)

Date Brightness Start Highest point End Pass type
(mag) Time Alt. Az. Time Alt. Az. Time Alt. Az.
04 Jun 0.2 02:47:07 10° S 02:48:41 13° SSE 02:50:17 10° SE visible
06 Jun -0.3 02:27:16 14° SSW 02:28:25 17° SSE 02:30:35 10° ESE visible
07 Jun 0.3 01:31:14 12° SE 01:31:14 12° SE 01:31:48 10° SE visible
07 Jun -0.6 03:03:52 10° SW 03:06:23 21° S 03:08:55 10° SE visible
